Weather in Vorobyevka

Russia / Republic of Kalmykia     46°12′14″N   43°45′58″E
temp.,
°C
wind,
m/s
gust,
m/s
humid.,
%
clouds,
%
prec.,
mm/h
press.,
hPa
HPBL,
m
17 may, mon
mon1700:00+20e10193170 0.0 1007472
03:00+20e920347 0.0 1006527
06:00+19ese8194225 0.0 1006562
09:00+26ese101632100 0.1 10071169
12:00+30se1113229 0.0 10061862
15:00+31ese1012224 0.0 10062056
18:00+27se713294 0.0 1006446
21:00+21e6133599 0.0 1007205
18 may, tue
tue1800:00+19ese4837100 0.0 1007141
03:00+17s224689 0.0 100713
06:00+17wnw697396 0.0 1007286
09:00+21nw9964100 0.0 1007903
12:00+24nw765087 0.0 10081787
15:00+21w10116463 0.0 1008850
18:00+21wnw796992 0.1 1009852
21:00+19wnw5107791 0.4 1010406
19 may, wed
wed1900:00+16wnw348728 0.0 101063
03:00+15nw22902 0.0 101021
06:00+17wnw348255 0.0 1009145
09:00+22wnw5558100 0.0 10101054
12:00+19w111174100 0.4 1011922
15:00+16wnw8127249 3.1 1013694
18:00+18w61066100 0.0 10131165
21:00+15wsw510781 0.0 1015352
20 may, thu
thu2000:00+14wsw714792 0.0 1016591
03:00+13w6128442 0.0 1017480
06:00+13wsw49835 0.0 1018447
09:00+18w67620 0.0 1018880
12:00+21w56523 0.0 10181460
15:00+23wnw344547 0.0 10171716
18:00+22wnw214798 0.0 10181340
21:00+17nne33660 0.0 101833
21 may, fri
fri2100:00+16ne46720 0.0 101883
03:00+15ene47760 0.0 1018111
06:00+16ene59715 0.0 1019242
09:00+22ese67480 0.0 1018944
12:00+26e56350 0.0 10171551
15:00+28e56311 0.0 10161818
18:00+26e47380 0.0 1015224
21:00+21ene57460 0.0 101676